Regional Weather Roundup
Issued by NWS

Home | Current Version | Previous Version | Text Only | Print | Product List | Glossary On
Versions: 1 2 3 4 5 6 7 8 9 10 11 12 13 14 15 16 17 18 19 20 21 22 23 24 25 26 27 28 29 30 31 32 33 34 35 36 37 38 39 40 41 42 43 44 45 46 47 48 49 50
000
ASUS46 KPQR 270810
RWROR

OREGON REGIONAL WEATHER ROUNDUP
NATIONAL WEATHER SERVICE PORTLAND OR
1200 AM PST TUE JAN 27 2015

NOTE: "FAIR" INDICATES FEW OR NO CLOUDS BELOW 12,000 FEET WITH
NO SIGNIFICANT WEATHER AND/OR OBSTRUCTIONS TO VISIBILITY.

ORZ001>013-270900-
NORTHWEST OREGON


CITY           SKY/WX    TMP DP  RH WIND       PRES   REMARKS
ASTORIA        FOG       48  47  96 SE3       30.00R VSB 1/4
NEWPORT        CLOUDY    50  50 100 SE3       30.04S
PORTLAND       FOG       41  40  96 E6        30.03S VSB 1
VANCOUVER WA   CLOUDY    42  40  92 E5        30.03R
SCAPPOOSE      FOG       40  39  97 SW3       30.01S VSB 3/4
HILLSBORO      FOG       41  41 100 CALM      30.02R VSB 1/4
AURORA         FOG       44  44 100 CALM      30.03S VSB 1/4
MCMINNVILLE    FOG       43  41  93 E5        30.03S VSB 1/4
SALEM          FOG       45  44  97 CALM      30.02R VSB 1/4
CORVALLIS      CLOUDY    46  43  87 CALM      30.04S VSB 1/4
EUGENE         FOG       43  41  93 CALM      30.04R VSB 1/4
$$

ORZ021-028-270900-
SOUTHWEST OREGON


CITY           SKY/WX    TMP DP  RH WIND       PRES   REMARKS
NORTH BEND     CLOUDY    54  52  94 CALM      30.04S
BROOKINGS      CLOUDY    51  51 100 CALM      30.03S
ROSEBURG       FOG       44  43  96 CALM      30.01S VSB 1/4
SEXTON SUMMIT  MOCLDY    51  24  34 S9        30.02S
MEDFORD        FOG       37  36  96 CALM      30.02F VSB 1/4
$$

ORZ014>016-041-270900-
COLUMBIA GORGE


CITY           SKY/WX    TMP DP  RH WIND       PRES   REMARKS
TROUTDALE      CLOUDY    44  41  89 CALM      30.03R
THE DALLES     CLOUDY    41  39  93 CALM      30.05S
$$

ORZ029>031-041-044-049-050-061>064-502-503-505>511-270900-
EASTERN OREGON


CITY           SKY/WX    TMP DP  RH WIND       PRES   REMARKS
REDMOND        MOCLDY    35  31  85 CALM      30.01R
BEND           MOCLDY    37  28  70 SE7       30.03S WCI  32
PRINEVILLE     MOCLDY    43  36  75 S8        30.03S
KLAMATH FALLS  MOCLDY    31  29  92 NE3       30.03F
LAKEVIEW       CLEAR     30  27  86 N7        30.06F WCI  23
HERMISTON      FOG       37  36  96 NE3       30.04R VSB 3/4
PENDLETON      FOG       32  32 100 CALM      30.00R VSB 1/4
JOHN DAY       PTCLDY    42  32  67 E7        30.03F
MEACHAM        MOCLDY    44  33  65 VRB3      30.03S
LA GRANDE      PTCLDY    46  30  53 S20G25    30.05F
BAKER CITY     PTCLDY    28  27  96 CALM      30.11F
BURNS          FOG       30  28  92 S3        30.09F VSB 1/4
ROME             N/A     31  29  92 CALM      30.09F
ONTARIO        CLEAR     29  27  92 NE3       30.18F FOG
$$


USA.gov is the U.S. government's official web portal to all federal, state and local government web resources and services.